Sauk Centre, MN

10:32 AM CST on December 06, 2019 (GMT -0600)
Sauk Centre

Weather History for KD39 - October, 2019

Change the Weather History Date:

Sunday, October 13, 2019

  Actual Average (KGHW) Record (KGHW)
Temperature  
Mean Temperature 36 °F -  
Max Temperature 39 °F 58 °F 80 °F (1956)
Min Temperature 32 °F 37 °F 5 °F (1999)
Degree Days  
Heating Degree Days 30    
Moisture  
Dew Point 31 °F    
Average Humidity 90    
Maximum Humidity 99    
Minimum Humidity 69    
Precipitation  
Precipitation 0.00 in - - ()
Sea Level Pressure  
Sea Level Pressure 29.76 in    
Wind  
Wind Speed 10 mph ()    
Max Wind Speed 18 mph    
Max Gust Speed 24 mph    
Visibility 9.5 miles    
Events Snow    
Averages and records for this station are not official NWS values.
T = Trace of Precipitation, MM = Missing Value Source: Averaged Metar Reports

Daily Weather History Graph

Daily Weather History Graph

Search for Another Location

Airport or City:

Astronomy

Oct. 13, 2019 Rise Set
Actual Time 7:33 AM CDT 6:37 PM CDT
Civil Twilight 7:03 AM CDT 7:07 PM CDT
Nautical Twilight 6:28 AM CDT 7:42 PM CDT
Astronomical Twilight 5:54 AM CDT 8:16 PM CDT
Moon 7:03 PM CDT (10/13) 7:03 AM CDT (10/13)
Length of Visible Light 12h 04m
Length of Day
11h 04m
Full, 100% of the Moon is Illuminated
Oct 13
Full
Oct 13
Full
Oct 21
Last Quarter
Oct 27
New
Nov 4
First Quarter

Hourly Weather History & Observations

Time (CDT) Temp. Windchill Dew Point Humidity Pressure Visibility Wind Dir Wind Speed Gust Speed Precip Events Conditions
12:15 AM 32.2 °F 23.2 °F 31.1 °F 96% 29.61 in 10.0 mi West 11.5 mph 18.4 mph N/A   Overcast
12:20 AM 32.2 °F 22.7 °F 31.1 °F 96% 29.61 in 10.0 mi West 12.7 mph 19.6 mph N/A   Overcast
12:37 AM 32.2 °F 23.2 °F 31.1 °F 96% 29.61 in 10.0 mi West 11.5 mph 18.4 mph N/A   Overcast
12:56 AM 32.4 °F 23.5 °F 31.1 °F 95% 29.61 in 10.0 mi West 11.5 mph - N/A   Overcast
1:15 AM 32.4 °F 23.5 °F 31.1 °F 95% 29.62 in 10.0 mi West 11.5 mph 18.4 mph N/A   Overcast
1:16 AM 32.4 °F 24.0 °F 31.1 °F 95% 29.62 in 10.0 mi West 10.4 mph 18.4 mph N/A   Overcast
1:35 AM 32.4 °F 24.0 °F 31.1 °F 95% 29.62 in 10.0 mi West 10.4 mph - N/A   Overcast
1:36 AM 32.4 °F 24.0 °F 31.1 °F 95% 29.62 in 10.0 mi West 10.4 mph - N/A   Overcast
1:59 AM 32.5 °F 24.2 °F 31.1 °F 94% 29.63 in 10.0 mi West 10.4 mph - N/A   Overcast
2:16 AM 32.5 °F 24.2 °F 31.5 °F 96% 29.63 in 10.0 mi West 10.4 mph - N/A   Overcast
2:35 AM 32.4 °F 22.5 °F 31.6 °F 97% 29.64 in 10.0 mi West 13.8 mph - N/A   Overcast
2:36 AM 32.4 °F 23.0 °F 31.8 °F 98% 29.64 in 10.0 mi West 12.7 mph - N/A   Overcast
2:55 AM 32.2 °F 23.8 °F 31.6 °F 98% 29.64 in 10.0 mi West 10.4 mph - N/A   Overcast
2:56 AM 32.2 °F 23.2 °F 31.6 °F 98% 29.64 in 10.0 mi West 11.5 mph - N/A   Overcast
3:15 AM 32.4 °F 24.6 °F 31.5 °F 96% 29.65 in 10.0 mi West 9.2 mph 16.1 mph N/A   Overcast
3:20 AM 32.4 °F 24.0 °F 31.5 °F 96% 29.65 in 10.0 mi West 10.4 mph - N/A   Overcast
3:37 AM 32.4 °F 23.5 °F 31.3 °F 96% 29.65 in 10.0 mi West 11.5 mph 17.3 mph N/A Snow Light Snow
3:55 AM 32.4 °F 25.3 °F 31.1 °F 95% 29.65 in 10.0 mi West 8.1 mph - N/A Snow Light Snow
4:15 AM 32.2 °F 25.0 °F 31.8 °F 99% 29.65 in 10.0 mi West 8.1 mph - N/A Snow Light Snow
4:35 AM 32.2 °F 23.8 °F 31.8 °F 99% 29.65 in 10.0 mi West 10.4 mph - N/A   Overcast
4:59 AM 32.2 °F 24.4 °F 31.6 °F 98% 29.66 in 10.0 mi West 9.2 mph - N/A   Overcast
5:16 AM 32.2 °F 25.0 °F 32.0 °F 99% 29.66 in 7.0 mi West 8.1 mph - N/A Snow Light Snow
5:35 AM 32.0 °F 25.6 °F 31.8 °F 99% 29.66 in 3.0 mi West 6.9 mph - N/A Snow Light Snow
5:36 AM 32.0 °F 25.6 °F 31.8 °F 99% 29.66 in 3.0 mi West 6.9 mph - N/A Snow Light Snow
5:55 AM 32.0 °F 24.2 °F 31.8 °F 99% 29.67 in 7.0 mi West 9.2 mph - N/A Snow Light Snow
5:56 AM 32.0 °F 23.6 °F 31.8 °F 99% 29.67 in 7.0 mi West 10.4 mph - N/A Snow Light Snow
6:15 AM 32.0 °F 23.0 °F 31.8 °F 99% 29.67 in 5.0 mi West 11.5 mph 17.3 mph N/A Snow Light Snow
6:19 AM 32.0 °F 23.0 °F 31.8 °F 99% 29.67 in 7.0 mi West 11.5 mph - N/A Snow Light Snow
6:37 AM 32.0 °F 23.6 °F 31.8 °F 99% 29.67 in 7.0 mi West 10.4 mph - N/A Snow Light Snow
6:55 AM 32.0 °F 22.5 °F 31.8 °F 99% 29.67 in 10.0 mi West 12.7 mph - N/A Snow Light Snow
7:15 AM 32.2 °F 23.8 °F 31.8 °F 99% 29.67 in 10.0 mi West 10.4 mph 17.3 mph N/A   Overcast
7:35 AM 32.2 °F 24.4 °F 31.8 °F 99% 29.68 in 10.0 mi West 9.2 mph - N/A   Overcast
7:36 AM 32.2 °F 23.8 °F 31.8 °F 99% 29.68 in 10.0 mi West 10.4 mph - N/A   Overcast
7:59 AM 32.2 °F 25.0 °F 31.8 °F 99% 29.69 in 10.0 mi West 8.1 mph - N/A   Overcast
8:16 AM 32.4 °F 24.6 °F 32.0 °F 99% 29.69 in 10.0 mi West 9.2 mph - N/A   Overcast
8:36 AM 32.5 °F 24.8 °F 31.6 °F 96% 29.70 in 10.0 mi West 9.2 mph - N/A   Overcast
8:55 AM 32.9 °F 24.7 °F 31.6 °F 95% 29.70 in 10.0 mi West 10.4 mph 16.1 mph N/A   Overcast
8:56 AM 32.9 °F 25.3 °F 31.6 °F 95% 29.70 in 10.0 mi West 9.2 mph 16.1 mph N/A   Overcast
9:15 AM 32.9 °F 23.7 °F 31.6 °F 95% 29.71 in 10.0 mi West 12.7 mph 17.3 mph N/A   Overcast
9:19 AM 32.9 °F 24.1 °F 31.8 °F 96% 29.71 in 10.0 mi West 11.5 mph 17.3 mph N/A   Overcast
9:37 AM 32.9 °F 24.1 °F 32.0 °F 96% 29.72 in 7.0 mi West 11.5 mph - N/A Snow Light Snow
9:55 AM 32.9 °F 23.2 °F 31.8 °F 96% 29.73 in 4.0 mi WNW 13.8 mph - N/A Snow Light Snow
10:15 AM 33.1 °F 24.4 °F 31.8 °F 95% 29.74 in 7.0 mi WNW 11.5 mph 20.7 mph N/A   Overcast
10:16 AM 33.1 °F 24.9 °F 31.8 °F 95% 29.74 in 7.0 mi WNW 10.4 mph 20.7 mph N/A   Overcast
10:35 AM 33.8 °F 24.3 °F 32.0 °F 93% 29.74 in 10.0 mi WNW 13.8 mph - N/A   Overcast
10:36 AM 33.8 °F 24.8 °F 32.0 °F 93% 29.74 in 10.0 mi WNW 12.7 mph - N/A   Overcast
10:59 AM 34.2 °F 25.2 °F 32.0 °F 92% 29.75 in 7.0 mi WNW 12.7 mph - N/A   Overcast
11:16 AM 34.5 °F 25.7 °F 32.0 °F 90% 29.75 in 10.0 mi WNW 12.7 mph 18.4 mph N/A   Overcast
11:36 AM 35.1 °F 25.9 °F 32.0 °F 89% 29.75 in 10.0 mi WNW 13.8 mph 19.6 mph N/A   Overcast
11:55 AM 34.9 °F 25.3 °F 32.0 °F 89% 29.76 in 10.0 mi West 15.0 mph 20.7 mph N/A   Overcast
11:56 AM 34.9 °F 26.2 °F 32.0 °F 89% 29.76 in 10.0 mi West 12.7 mph 20.7 mph N/A   Overcast
12:15 PM 35.1 °F 26.4 °F 32.0 °F 89% 29.76 in 10.0 mi WNW 12.7 mph 18.4 mph N/A   Overcast
12:20 PM 35.4 °F 26.0 °F 32.2 °F 88% 29.76 in 10.0 mi West 15.0 mph 20.7 mph N/A   Overcast
12:38 PM 36.7 °F 28.0 °F 32.4 °F 84% 29.77 in 10.0 mi WNW 13.8 mph 21.9 mph N/A   Overcast
12:55 PM 36.1 °F 27.3 °F 31.8 °F 84% 29.77 in 10.0 mi WNW 13.8 mph 19.6 mph N/A   Overcast
1:15 PM 36.5 °F 28.2 °F 32.0 °F 84% 29.78 in 10.0 mi West 12.7 mph 19.6 mph N/A   Overcast
1:16 PM 36.5 °F 28.2 °F 32.0 °F 84% 29.78 in 10.0 mi West 12.7 mph 19.6 mph N/A   Overcast
1:35 PM 37.0 °F 28.5 °F 32.0 °F 82% 29.78 in 10.0 mi WNW 13.8 mph - N/A   Overcast
1:36 PM 37.0 °F 28.5 °F 31.8 °F 81% 29.78 in 10.0 mi WNW 13.8 mph - N/A   Overcast
1:58 PM 36.7 °F 28.0 °F 32.0 °F 83% 29.79 in 10.0 mi NW 13.8 mph - N/A   Overcast
2:16 PM 37.4 °F 28.2 °F 32.0 °F 81% 29.79 in 10.0 mi West 16.1 mph 20.7 mph N/A   Overcast
2:36 PM 37.4 °F 28.2 °F 31.1 °F 78% 29.80 in 10.0 mi WNW 16.1 mph 21.9 mph N/A   Overcast
2:55 PM 39.2 °F 30.5 °F 31.3 °F 73% 29.80 in 10.0 mi WNW 16.1 mph 19.6 mph N/A   Overcast
3:15 PM 38.5 °F 30.3 °F 30.9 °F 74% 29.81 in 10.0 mi WNW 13.8 mph 23.0 mph N/A   Overcast
3:19 PM 38.3 °F 30.1 °F 30.9 °F 75% 29.81 in 10.0 mi West 13.8 mph 23.0 mph N/A   Overcast
3:38 PM 38.7 °F 29.5 °F 29.1 °F 69% 29.81 in 10.0 mi NW 17.3 mph 24.2 mph N/A   Overcast
3:55 PM 38.5 °F 28.9 °F 29.1 °F 69% 29.81 in 10.0 mi NW 18.4 mph - N/A   Overcast
4:15 PM 38.1 °F 29.5 °F 29.1 °F 70% 29.82 in 10.0 mi NW 15.0 mph 18.4 mph N/A   Mostly Cloudy
4:35 PM 37.6 °F 28.8 °F 30.4 °F 75% 29.83 in 10.0 mi WNW 15.0 mph - N/A   Mostly Cloudy
4:58 PM 37.8 °F 29.8 °F 31.1 °F 77% 29.84 in 10.0 mi WNW 12.7 mph 17.3 mph N/A   Scattered Clouds
5:17 PM 38.8 °F 30.8 °F 29.5 °F 69% 29.84 in 10.0 mi WNW 13.8 mph 17.3 mph N/A   Scattered Clouds
5:36 PM 37.2 °F 29.6 °F 30.0 °F 75% 29.85 in 10.0 mi West 11.5 mph 18.4 mph N/A   Scattered Clouds
5:55 PM 36.5 °F 30.3 °F 30.2 °F 78% 29.85 in 10.0 mi WNW 8.1 mph 16.1 mph N/A   Mostly Cloudy
5:56 PM 36.5 °F 30.3 °F 30.2 °F 78% 29.85 in 10.0 mi West 8.1 mph - N/A   Mostly Cloudy
6:15 PM 35.1 °F 28.6 °F 29.8 °F 81% 29.86 in 10.0 mi West 8.1 mph - N/A   Scattered Clouds
6:19 PM 34.7 °F 28.8 °F 29.8 °F 82% 29.86 in 10.0 mi West 6.9 mph - N/A   Scattered Clouds
6:37 PM 33.8 °F 28.6 °F 30.0 °F 86% 29.87 in 10.0 mi West 5.8 mph - N/A   Clear
6:55 PM 33.4 °F 28.1 °F 29.8 °F 87% 29.88 in 10.0 mi West 5.8 mph - N/A   Clear
7:15 PM 32.9 °F 27.5 °F 29.8 °F 88% 29.88 in 10.0 mi West 5.8 mph - N/A   Clear
7:16 PM 32.7 °F 27.3 °F 29.8 °F 89% 29.88 in 10.0 mi West 5.8 mph - N/A   Clear
7:35 PM 32.5 °F 27.1 °F 30.4 °F 92% 29.89 in 10.0 mi West 5.8 mph - N/A   Mostly Cloudy
7:58 PM 32.9 °F 27.5 °F 30.2 °F 90% 29.90 in 10.0 mi West 5.8 mph - N/A   Mostly Cloudy
8:17 PM 32.0 °F 27.5 °F 29.8 °F 92% 29.91 in 10.0 mi West 4.6 mph - N/A   Scattered Clouds
8:36 PM 32.0 °F 26.4 °F 30.2 °F 93% 29.91 in 10.0 mi West 5.8 mph - N/A   Mostly Cloudy
8:55 PM 32.2 °F 26.7 °F 30.6 °F 94% 29.91 in 10.0 mi West 5.8 mph - N/A   Overcast
8:56 PM 32.2 °F 26.7 °F 30.6 °F 94% 29.91 in 10.0 mi West 5.8 mph - N/A   Overcast
9:15 PM 33.1 °F 28.7 °F 31.1 °F 92% 29.92 in 10.0 mi West 4.6 mph - N/A   Overcast
9:37 PM 33.8 °F 27.7 °F 31.3 °F 90% 29.92 in 10.0 mi West 6.9 mph - N/A   Overcast
9:56 PM 33.8 °F 28.6 °F 32.0 °F 93% 29.92 in 10.0 mi West 5.8 mph - N/A   Overcast
10:15 PM 34.2 °F 30.0 °F 32.0 °F 92% 29.92 in 10.0 mi West 4.6 mph - N/A   Overcast
10:16 PM 34.2 °F 30.0 °F 32.0 °F 92% 29.92 in 10.0 mi West 4.6 mph - N/A   Overcast
10:35 PM 34.0 °F 28.8 °F 32.0 °F 92% 29.92 in 10.0 mi WSW 5.8 mph - N/A   Overcast
10:36 PM 34.0 °F 28.8 °F 32.0 °F 92% 29.92 in 10.0 mi WSW 5.8 mph - N/A   Overcast
10:58 PM 34.7 °F 28.8 °F 32.2 °F 91% 29.92 in 10.0 mi West 6.9 mph - N/A   Overcast
11:16 PM 34.9 °F 27.7 °F 32.2 °F 90% 29.93 in 10.0 mi West 9.2 mph - N/A   Overcast
11:35 PM 35.1 °F 27.4 °F 32.0 °F 89% 29.93 in 10.0 mi West 10.4 mph - N/A   Mostly Cloudy
11:55 PM 35.1 °F 28.6 °F 32.0 °F 89% 29.93 in 10.0 mi West 8.1 mph - N/A   Overcast
11:56 PM 35.1 °F 28.6 °F 32.0 °F 89% 29.93 in 10.0 mi West 8.1 mph - N/A   Overcast